Imperial, NE

3:13 PM MST on December 08, 2016 (GMT -0700)
Imperial Municipal

Weather History for KIML - September, 2012

Change the Weather History Date:

Saturday, September 1, 2012

  Actual Average Record
Temperature  
Mean Temperature 77 °F 70 °F  
Max Temperature 100 °F 84 °F 106 °F (1948)
Min Temperature 54 °F 56 °F 38 °F (1956)
Degree Days  
Heating Degree Days 0 1  
Month to date heating degree days 0 1  
Cooling Degree Days 12 6  
Month to date cooling degree days 12 6  
Year to date cooling degree days 1284 872  
Growing Degree Days 27 (Base 50)    
Moisture  
Dew Point 39 °F    
Average Humidity 37    
Maximum Humidity 66    
Minimum Humidity 8    
Precipitation  
Precipitation 0.00 in 0.05 in 2.32 in (1966)
Sea Level Pressure  
Sea Level Pressure 29.93 in    
Wind  
Wind Speed 10 mph (South)    
Max Wind Speed 24 mph    
Max Gust Speed 32 mph    
Visibility 10 miles    
Events      
T = Trace of Precipitation, MM = Missing Value Source: NWS Daily Summary

Daily Weather History Graph

Daily Weather History Graph

Search for Another Location

Airport or City:

Trip Planner

Search our weather history database for the weather conditions in past years. The results will help you decide how hot, cold, wet, or windy it might be!

Date:

Astronomy

Sep. 01, 2012 Rise Set
Actual Time 6:14 AM MDT 7:17 PM MDT
Civil Twilight 5:46 AM MDT 7:45 PM MDT
Nautical Twilight 5:12 AM MDT 8:18 PM MDT
Astronomical Twilight 4:38 AM MDT 8:53 PM MDT
Moon 7:34 PM MDT (9/1) 7:24 AM MDT (9/1)
Length of Visible Light 13h 59m
Length of Day
13h 03m
Full, 98% of the Moon is Illuminated
Sep 1
Full
Sep 8
Last Quarter
Sep 15
New
Sep 22
First Quarter
Sep 29
Full

Hourly Weather History & Observations

Time (MDT) Temp. Dew Point Humidity Pressure Visibility Wind Dir Wind Speed Gust Speed Precip Events Conditions
12:53 AM 71.1 °F 46.0 °F 41% 29.96 in 10.0 mi South 8.1 mph - N/A   Clear
1:53 AM 64.0 °F 46.0 °F 52% 29.98 in 10.0 mi SW 3.5 mph - N/A   Clear
2:53 AM 62.1 °F 46.0 °F 56% 29.98 in 10.0 mi Calm Calm - N/A   Clear
3:53 AM 57.0 °F 44.1 °F 62% 29.98 in 10.0 mi Calm Calm - N/A   Clear
4:53 AM 60.1 °F 45.0 °F 57% 29.98 in 10.0 mi SW 3.5 mph - N/A   Clear
5:53 AM 55.9 °F 45.0 °F 67% 29.99 in 10.0 mi Calm Calm - N/A   Clear
6:53 AM 57.0 °F 45.0 °F 64% 30.02 in 10.0 mi Calm Calm - N/A   Clear
7:53 AM 66.9 °F 46.0 °F 47% 30.03 in 10.0 mi SSW 4.6 mph - N/A   Clear
8:53 AM 78.1 °F 48.0 °F 35% 30.00 in 10.0 mi Variable 6.9 mph - N/A   Clear
9:53 AM 88.0 °F 44.1 °F 22% 29.99 in 10.0 mi SSW 13.8 mph - N/A   Clear
10:53 AM 93.0 °F 39.0 °F 15% 29.96 in 10.0 mi South 12.7 mph - N/A   Clear
11:53 AM 97.0 °F 30.9 °F 10% 29.94 in 10.0 mi SSW 19.6 mph 32.2 mph N/A   Clear
12:53 PM 97.0 °F 28.9 °F 9% 29.92 in 10.0 mi South 13.8 mph 26.5 mph N/A   Clear
1:53 PM 99.0 °F 28.9 °F 8% 29.91 in 10.0 mi South 18.4 mph 25.3 mph N/A   Clear
2:53 PM 99.0 °F 30.9 °F 9% 29.88 in 7.0 mi SSE 15.0 mph 27.6 mph N/A   Clear
3:53 PM 99.0 °F 30.9 °F 9% 29.86 in 10.0 mi South 15.0 mph 23.0 mph N/A   Clear
4:53 PM 97.0 °F 30.9 °F 10% 29.85 in 10.0 mi SSE 13.8 mph 28.8 mph N/A   Clear
5:53 PM 95.0 °F 32.0 °F 11% 29.85 in 10.0 mi SSE 18.4 mph 28.8 mph N/A   Clear
6:53 PM 90.0 °F 33.1 °F 13% 29.86 in 10.0 mi SSE 10.4 mph - N/A   Clear
7:53 PM 82.0 °F 37.9 °F 21% 29.87 in 10.0 mi SSE 10.4 mph - N/A   Clear
8:53 PM 77.0 °F 39.0 °F 25% 29.88 in 10.0 mi SSE 9.2 mph - N/A   Clear
9:53 PM 77.0 °F 41.0 °F 28% 29.87 in 10.0 mi SSE 13.8 mph - N/A   Clear
10:53 PM 77.0 °F 41.0 °F 28% 29.86 in 10.0 mi SSE 16.1 mph - N/A   Clear
11:53 PM 77.0 °F 39.9 °F 26% 29.86 in 10.0 mi SSE 15.0 mph - N/A   Clear